CW5456 Weather Reports


Display with metric or nautical units.
time (UTC)temp
F
wind
direction
speed
MPH
gust
MPH
rain 1hr
in
rain 24hr
in
rain mn
in
humidity
%
barometer
mb
20170329031517 50 101 8.0 29.0 0.00 0.00 0.00 87 1018.2
20170329031017 50 62 8.0 35.0 0.00 0.00 0.00 87 1018.4
20170329030517 50 102 8.0 35.0 0.00 0.00 0.00 87 1018.3
20170329030019 50 63 9.0 34.0 0.00 0.00 0.00 87 1018.1
20170329025519 50 108 9.0 38.0 0.00 0.00 0.00 87 1018.2
20170329025016 50 110 22.0 38.0 0.00 0.00 0.00 87 1018.0
20170329024516 50 109 15.0 34.0 0.00 0.00 0.00 87 1018.4
20170329024016 50 114 9.0 34.0 0.00 0.00 0.00 87 1018.2
20170329023516 50 108 19.0 31.0 0.00 0.00 0.00 87 1018.4
20170329023019 50 118 6.0 29.0 0.00 0.00 0.00 87 1018.2
20170329022515 50 128 13.0 31.0 0.00 0.00 0.00 87 1018.3
20170329022016 50 134 10.0 31.0 0.00 0.00 0.00 87 1018.3
20170329021515 50 93 14.0 28.0 0.00 0.00 0.00 87 1018.3
20170329021015 51 68 9.0 36.0 0.00 0.00 0.00 87 1018.4
20170329020516 51 106 19.0 38.0 0.00 0.00 0.00 87 1018.4
20170329020015 51 120 16.0 38.0 0.00 0.00 0.00 87 1018.2
20170329015517 51 135 13.0 36.0 0.00 0.00 0.00 87 1018.1
20170329015017 51 103 26.0 32.0 0.00 0.00 0.00 86 1018.0
20170329014514 51 148 12.0 36.0 0.00 0.00 0.00 86 1018.1
20170329014015 51 113 11.0 36.0 0.00 0.00 0.00 86 1018.2
20170329013517 51 83 20.0 32.0 0.00 0.00 0.00 86 1018.3
20170329013014 51 131 16.0 35.0 0.00 0.00 0.00 86 1018.6
20170329012513 51 102 18.0 35.0 0.00 0.00 0.00 86 1018.6
20170329012013 51 114 14.0 33.0 0.00 0.00 0.00 85 1018.6
20170329011514 51 127 24.0 33.0 0.00 0.00 0.00 85 1018.4
20170329011014 51 109 13.0 32.0 0.00 0.00 0.00 85 1018.4
20170329010516 51 147 26.0 45.0 0.00 0.00 0.00 85 1018.6
20170329010016 51 133 19.0 45.0 0.00 0.00 0.00 85 1018.5
20170329005513 51 93 18.0 32.0 0.00 0.00 0.00 84 1018.4
20170329005012 51 88 19.0 35.0 0.00 0.00 0.00 84 1018.4
20170329004512 52 161 16.0 37.0 0.00 0.00 0.00 84 1018.4
20170329004012 52 58 7.0 37.0 0.00 0.00 0.00 84 1018.5
20170329003515 52 146 30.0 32.0 0.00 0.00 0.00 84 1018.5
20170329003012 52 139 27.0 32.0 0.00 0.00 0.00 83 1018.5
20170329002512 52 116 16.0 35.0 0.00 0.00 0.00 83 1018.6
20170329002011 52 110 10.0 35.0 0.00 0.00 0.00 83 1018.7
20170329001512 52 129 8.0 30.0 0.00 0.00 0.00 83 1018.8
20170329001002 52 125 8.0 30.0 0.00 0.00 0.00 82 1018.8
20170329000502 52 116 8.0 35.0 0.00 0.00 0.00 82 1018.8
20170329000006 53 158 10.0 35.0 0.00 0.00 0.00 82 1018.9
20170328235506 53 101 10.0 28.0 0.00 0.00 0.00 82 1018.9
20170328235006 53 142 6.0 28.0 0.00 0.00 0.00 82 1019.0
20170328234505 53 96 8.0 33.0 0.00 0.00 0.00 82 1019.0
20170328234035 53 119 20.0 33.0 0.00 0.00 0.00 82 1019.1
20170328233505 52 108 15.0 34.0 0.00 0.00 0.00 82 1019.2
20170328233005 53 94 12.0 34.0 0.00 0.00 0.00 81 1019.1
20170328232735 53 107 17.0 36.0 0.00 0.00 0.00 80 1019.1
20170328232222 53 107 14.0 33.0 0.00 0.00 0.00 80 1019.2
20170328231008 53 122 11.0 33.0 0.00 0.00 0.00 80 1019.1
20170328230711 53 107 16.0 34.0 0.00 0.00 0.00 80 1019.0
20170328225528 53 156 15.0 36.0 0.00 0.00 0.00 80 1019.0
20170328225028 53 127 11.0 36.0 0.00 0.00 0.00 80 1019.1
20170328224455 53 125 19.0 31.0 0.00 0.00 0.00 81 1018.9
20170328223954 53 110 4.0 31.0 0.00 0.00 0.00 81 1018.9
20170328223454 53 112 8.0 31.0 0.00 0.00 0.00 81 1019.1
20170328223027 53 148 13.0 33.0 0.00 0.00 0.00 82 1019.0
20170328222524 53 111 10.0 41.0 0.00 0.00 0.00 82 1019.0
20170328221954 53 108 20.0 41.0 0.00 0.00 0.00 82 1018.9
20170328221524 53 122 6.0 35.0 0.00 0.00 0.00 82 1019.0
20170328220953 53 91 30.0 34.0 0.00 0.00 0.00 82 1019.0
20170328220523 53 109 19.0 33.0 0.00 0.00 0.00 82 1019.0
20170328220024 53 83 9.0 33.0 0.00 0.00 0.00 83 1019.0
20170328215523 52 95 4.0 35.0 0.00 0.00 0.00 82 1019.0
20170328215023 52 116 14.0 35.0 0.00 0.00 0.00 82 1019.1
20170328214523 53 107 17.0 31.0 0.00 0.00 0.00 83 1019.3
20170328214026 53 105 11.0 31.0 0.00 0.00 0.00 83 1019.4
20170328213522 53 100 10.0 28.0 0.00 0.00 0.00 83 1019.3
20170328213025 53 114 13.0 34.0 0.00 0.00 0.00 83 1019.3
20170328212522 53 101 15.0 34.0 0.00 0.00 0.00 83 1019.2
20170328212025 53 78 9.0 29.0 0.00 0.00 0.00 83 1019.3
20170328211522 53 120 17.0 35.0 0.00 0.00 0.00 83 1019.1
20170328211025 53 106 3.0 35.0 0.00 0.00 0.00 83 1019.1
20170328210525 53 104 14.0 32.0 0.00 0.00 0.00 83 1019.2
20170328210021 52 125 17.0 32.0 0.00 0.00 0.00 83 1019.1
20170328205522 52 105 15.0 32.0 0.00 0.00 0.00 83 1019.2
20170328205021 52 101 20.0 32.0 0.00 0.00 0.00 83 1019.2
20170328204521 52 117 12.0 32.0 0.00 0.00 0.00 83 1019.3
20170328204021 52 80 12.0 32.0 0.00 0.00 0.00 84 1019.4
20170328203524 52 114 6.0 33.0 0.00 0.00 0.00 84 1019.3
20170328203023 52 87 27.0 33.0 0.00 0.00 0.00 85 1019.3
20170328202523 51 128 24.0 32.0 0.00 0.00 0.00 86 1019.3
20170328202020 51 129 16.0 32.0 0.00 0.00 0.00 85 1019.1
20170328201523 51 93 13.0 32.0 0.00 0.00 0.00 85 1019.3
20170328201020 51 127 25.0 35.0 0.00 0.00 0.00 84 1019.2
20170328200520 51 137 24.0 35.0 0.00 0.00 0.00 84 1019.3
20170328200019 51 114 16.0 32.0 0.00 0.00 0.00 84 1019.3
20170328195520 51 146 10.0 32.0 0.00 0.00 0.00 84 1019.6
20170328195020 51 126 16.0 32.0 0.00 0.00 0.00 84 1019.7
20170328194519 51 89 10.0 31.0 0.00 0.00 0.00 84 1019.7
20170328194019 50 102 11.0 37.0 0.00 0.00 0.00 84 1019.4
20170328193519 50 69 10.0 37.0 0.00 0.00 0.00 84 1019.5
20170328193019 50 98 16.0 34.0 0.00 0.00 0.00 83 1019.5
20170328192521 51 120 32.0 34.0 0.00 0.00 0.00 83 1019.4
20170328192021 51 118 8.0 29.0 0.00 0.00 0.00 83 1019.2
20170328191519 51 66 14.0 31.0 0.00 0.00 0.00 83 1019.1
20170328191018 50 121 14.0 31.0 0.00 0.00 0.00 83 1019.2
20170328190518 50 98 12.0 30.0 0.00 0.00 0.00 83 1019.3
20170328190021 50 98 14.0 30.0 0.00 0.00 0.00 83 1019.3
20170328185517 50 123 9.0 29.0 0.00 0.00 0.00 83 1019.1
20170328185018 50 136 10.0 29.0 0.00 0.00 0.00 83 1019.0
20170328184517 50 133 21.0 28.0 0.00 0.00 0.00 83 1018.9
20170328184021 50 102 7.0 32.0 0.00 0.00 0.00 83 1018.9
20170328183517 50 111 15.0 32.0 0.00 0.00 0.00 83 1019.0
20170328183017 50 78 8.0 34.0 0.00 0.00 0.00 84 1018.9
20170328182517 50 113 15.0 34.0 0.00 0.00 0.00 84 1018.8
20170328182016 50 194 6.0 31.0 0.00 0.00 0.00 84 1019.0
20170328181516 50 104 16.0 36.0 0.00 0.00 0.00 84 1019.0
20170328181016 50 91 13.0 36.0 0.00 0.00 0.00 84 1019.0
20170328180516 50 89 11.0 30.0 0.00 0.00 0.00 84 1018.9
20170328180016 49 95 8.0 23.0 0.00 0.00 0.00 84 1018.9
20170328175516 49 127 13.0 24.0 0.00 0.00 0.00 85 1019.0
20170328175016 50 91 12.0 35.0 0.00 0.00 0.00 85 1019.0
20170328174519 49 89 14.0 37.0 0.00 0.00 0.00 85 1019.0
20170328174015 50 127 35.0 37.0 0.00 0.00 0.00 85 1018.9
20170328173515 49 111 17.0 32.0 0.00 0.00 0.00 86 1018.8
20170328173015 49 120 12.0 34.0 0.00 0.00 0.00 86 1018.7
20170328172515 49 109 12.0 34.0 0.00 0.00 0.00 87 1018.8
20170328172015 49 101 14.0 28.0 0.00 0.00 0.00 87 1018.9
20170328171518 49 90 4.0 28.0 0.00 0.00 0.00 87 1018.9
20170328171017 49 114 13.0 32.0 0.00 0.00 0.00 87 1018.8
20170328170517 48 75 16.0 32.0 0.00 0.00 0.00 88 1018.9
20170328170014 48 126 32.0 34.0 0.00 0.00 0.00 88 1018.7
20170328165514 48 109 16.0 34.0 0.00 0.00 0.00 88 1018.7
20170328165014 48 77 17.0 28.0 0.00 0.00 0.00 89 1018.7
20170328164514 48 112 14.0 30.0 0.00 0.00 0.00 89 1018.6
20170328164013 47 139 11.0 30.0 0.00 0.00 0.00 89 1018.7
20170328163513 47 46 8.0 24.0 0.00 0.00 0.00 89 1018.7
20170328163013 47 69 4.0 34.0 0.00 0.00 0.00 89 1018.7
20170328162516 47 116 12.0 34.0 0.00 0.00 0.00 90 1018.8
20170328162016 47 108 7.0 27.0 0.00 0.00 0.00 90 1019.0
20170328161513 47 134 16.0 39.0 0.00 0.00 0.00 90 1019.0
20170328161016 47 109 10.0 39.0 0.00 0.00 0.00 90 1019.0
20170328160512 47 113 26.0 29.0 0.00 0.00 0.00 90 1018.9
20170328160012 46 134 6.0 29.0 0.00 0.00 0.00 90 1019.2
20170328155512 46 98 10.0 32.0 0.00 0.00 0.00 90 1019.2
20170328155012 46 140 18.0 34.0 0.00 0.00 0.00 89 1019.2
20170328154512 46 124 8.0 34.0 0.00 0.00 0.00 89 1019.1
20170328154015 47 66 10.0 30.0 0.00 0.00 0.00 89 1019.2
20170328153511 46 92 10.0 35.0 0.00 0.00 0.00 89 1019.1
20170328153015 46 130 14.0 35.0 0.00 0.00 0.00 89 1019.1
20170328152514 46 141 16.0 28.0 0.00 0.00 0.00 89 1019.2
20170328152011 46 75 11.0 26.0 0.00 0.00 0.00 89 1019.3
20170328151515 46 122 8.0 23.0 0.00 0.00 0.00 89 1019.3
20170328151011 46 86 10.0 25.0 0.00 0.00 0.00 89 1019.4
20170328150514 46 93 10.0 25.0 0.00 0.00 0.00 88 1019.5
20170328150010 46 75 8.0 22.0 0.00 0.00 0.00 88 1019.7
20170328145511 46 109 14.0 28.0 0.00 0.00 0.00 88 1019.8
20170328145010 46 110 10.0 28.0 0.00 0.00 0.00 88 1019.8
20170328144510 46 137 7.0 23.0 0.00 0.00 0.00 88 1019.8
20170328144010 46 127 12.0 30.0 0.00 0.00 0.00 88 1019.8
20170328143510 46 121 12.0 30.0 0.00 0.00 0.00 88 1019.7
20170328143012 46 135 12.0 29.0 0.00 0.00 0.00 88 1019.6
20170328142512 46 129 17.0 26.0 0.00 0.00 0.00 88 1019.6
20170328142009 46 79 19.0 32.0 0.00 0.00 0.00 88 1019.4
20170328141509 46 118 10.0 32.0 0.00 0.00 0.00 88 1019.5
20170328141009 46 130 13.0 26.0 0.00 0.00 0.00 88 1019.5
20170328140512 46 89 6.0 26.0 0.00 0.00 0.00 88 1019.5
20170328140008 46 79 8.0 33.0 0.00 0.00 0.00 88 1019.4
20170328135508 46 117 17.0 33.0 0.00 0.00 0.00 88 1019.3
20170328135008 46 137 11.0 34.0 0.00 0.00 0.00 87 1019.4
20170328134508 46 89 17.0 34.0 0.00 0.00 0.00 87 1019.6
20170328134008 46 159 10.0 30.0 0.00 0.00 0.00 87 1019.8
20170328133511 46 116 8.0 30.0 0.00 0.00 0.00 87 1019.8
20170328133008 46 143 13.0 21.0 0.00 0.00 0.00 87 1020.1
20170328132507 46 135 7.0 21.0 0.00 0.00 0.00 87 1020.0
20170328132008 46 147 3.0 21.0 0.00 0.00 0.00 87 1020.1
20170328131511 46 98 14.0 21.0 0.00 0.00 0.00 87 1020.0
20170328131010 46 124 8.0 21.0 0.00 0.00 0.00 87 1020.0
20170328130507 46 89 13.0 25.0 0.00 0.00 0.00 87 1019.8
20170328130007 47 137 16.0 28.0 0.00 0.00 0.00 87 1019.8
20170328125506 46 106 14.0 28.0 0.00 0.00 0.00 87 1019.7
20170328125006 46 134 18.0 26.0 0.00 0.00 0.00 87 1019.7
20170328124506 46 116 16.0 29.0 0.00 0.00 0.00 87 1019.6
20170328124006 46 117 13.0 31.0 0.00 0.00 0.00 87 1019.7
20170328123506 46 120 23.0 31.0 0.00 0.00 0.00 87 1019.7
20170328123009 46 130 18.0 27.0 0.00 0.00 0.00 87 1019.7
20170328122509 46 129 11.0 26.0 0.00 0.00 0.00 87 1019.8
20170328122006 46 124 18.0 28.0 0.00 0.00 0.00 87 1019.8
20170328121506 46 89 6.0 28.0 0.00 0.00 0.00 87 1019.7
20170328121006 46 127 12.0 30.0 0.00 0.00 0.00 87 1019.8
20170328120505 46 87 18.0 30.0 0.00 0.00 0.00 87 1019.7
20170328120005 46 80 7.0 32.0 0.00 0.00 0.00 87 1019.8
20170328115505 46 154 6.0 32.0 0.00 0.00 0.00 87 1019.8
20170328115005 46 134 13.0 28.0 0.00 0.00 0.00 87 1019.6
20170328114504 46 93 14.0 36.0 0.00 0.00 0.00 87 1019.5
20170328114005 46 124 22.0 36.0 0.00 0.00 0.00 87 1019.6
20170328113504 46 42 11.0 28.0 0.00 0.00 0.00 87 1019.8
20170328113004 46 94 10.0 22.0 0.00 0.00 0.00 87 1020.1
20170328112504 46 120 5.0 22.0 0.00 0.00 0.00 87 1020.3
20170328112004 46 89 4.0 20.0 0.00 0.00 0.00 87 1020.4
20170328111503 46 99 12.0 16.0 0.00 0.00 0.00 87 1020.4
20170328111003 46 117 8.0 18.0 0.00 0.00 0.00 87 1020.5
20170328110503 46 70 7.0 25.0 0.00 0.00 0.00 87 1020.7
20170328110006 46 106 8.0 25.0 0.00 0.00 0.00 87 1020.7
20170328105503 46 95 5.0 23.0 0.00 0.00 0.00 87 1020.6
20170328105003 46 135 19.0 23.0 0.00 0.00 0.00 87 1020.6
20170328104506 46 68 10.0 24.0 0.00 0.00 0.00 87 1020.6
20170328104005 46 116 8.0 27.0 0.00 0.00 0.00 86 1020.6
20170328103502 46 93 8.0 27.0 0.00 0.00 0.00 86 1020.5
20170328103002 46 159 13.0 23.0 0.00 0.00 0.00 86 1020.4
20170328102503 46 109 10.0 24.0 0.00 0.00 0.00 86 1020.4
20170328102002 46 101 7.0 24.0 0.00 0.00 0.00 86 1020.4
20170328101502 46 83 3.0 24.0 0.00 0.00 0.00 86 1020.3
20170328101001 46 70 13.0 29.0 0.00 0.00 0.00 86 1020.3
20170328100504 46 127 16.0 29.0 0.00 0.00 0.00 86 1020.2
20170328100002 46 131 22.0 27.0 0.00 0.00 0.00 86 1020.5
20170328095501 46 67 11.0 27.0 0.00 0.00 0.00 86 1020.5
20170328095004 46 106 21.0 30.0 0.00 0.00 0.00 86 1020.7
20170328094501 46 77 15.0 30.0 0.00 0.00 0.00 86 1020.7
20170328094000 46 143 6.0 26.0 0.00 0.00 0.00 86 1020.7
20170328093504 46 127 15.0 26.0 0.00 0.00 0.00 86 1020.7
20170328093000 46 166 6.0 26.0 0.00 0.00 0.00 86 1020.9
20170328092500 46 97 9.0 26.0 0.00 0.00 0.00 86 1020.9
20170328092003 46 116 5.0 23.0 0.00 0.00 0.00 85 1020.8
20170328091504 46 118 14.0 36.0 0.00 0.00 0.00 85 1020.8
20170328091003 46 118 6.0 36.0 0.00 0.00 0.00 85 1020.7
20170328090503 46 133 19.0 22.0 0.00 0.00 0.00 85 1020.9
20170328085959 46 106 13.0 26.0 0.00 0.00 0.00 85 1021.1
20170328085459 46 112 13.0 35.0 0.00 0.00 0.00 85 1021.0
20170328084959 47 98 17.0 35.0 0.00 0.00 0.00 84 1021.2
20170328084502 47 83 2.0 30.0 0.00 0.00 0.00 84 1021.2
20170328083959 47 101 11.0 30.0 0.00 0.00 0.00 84 1021.2
20170328083459 47 112 16.0 28.0 0.00 0.00 0.00 85 1021.3
20170328082958 47 127 21.0 28.0 0.00 0.00 0.00 85 1021.3
20170328082501 47 114 8.0 26.0 0.00 0.00 0.00 84 1021.5
20170328082002 47 106 20.0 26.0 0.00 0.00 0.00 84 1021.4
20170328081458 47 100 22.0 25.0 0.00 0.00 0.00 84 1021.5
20170328081001 47 126 14.0 22.0 0.00 0.00 0.00 84 1021.6
20170328080458 47 111 5.0 21.0 0.00 0.00 0.00 84 1021.7
20170328075957 47 122 2.0 21.0 0.00 0.00 0.00 84 1021.8
20170328075500 47 125 7.0 20.0 0.00 0.00 0.00 84 1021.7
20170328074957 47 107 16.0 22.0 0.00 0.00 0.00 84 1021.6
20170328074457 47 117 10.0 22.0 0.00 0.00 0.00 84 1021.7
20170328073957 47 102 11.0 22.0 0.00 0.00 0.00 84 1021.8
20170328073457 47 83 13.0 22.0 0.00 0.00 0.00 84 1021.7
20170328072956 47 106 3.0 16.0 0.00 0.00 0.00 84 1021.5
20170328072500 47 104 9.0 17.0 0.00 0.00 0.00 84 1021.5
20170328071957 47 116 2.0 17.0 0.00 0.00 0.00 84 1021.6
20170328071456 47 133 17.0 17.0 0.00 0.00 0.00 84 1021.6
20170328070956 47 120 6.0 16.0 0.00 0.00 0.00 84 1021.6
20170328070459 47 135 8.0 17.0 0.00 0.00 0.00 84 1021.6
20170328070026 47 121 16.0 18.0 0.00 0.00 0.00 84 1021.7
20170328065526 47 123 8.0 18.0 0.00 0.00 0.00 84 1021.7
20170328064955 47 144 14.0 16.0 0.00 0.00 0.00 84 1021.7
20170328064529 47 107 5.0 20.0 0.00 0.00 0.00 84 1021.7
20170328063955 47 136 2.0 20.0 0.00 0.00 0.00 84 1021.7
20170328063455 47 139 8.0 19.0 0.00 0.00 0.00 84 1021.7
20170328062958 47 108 8.0 14.0 0.00 0.00 0.00 83 1021.7
20170328062455 47 132 7.0 16.0 0.00 0.00 0.00 83 1021.6
20170328061957 47 152 6.0 20.0 0.00 0.00 0.00 83 1021.6
20170328061528 47 108 1.0 20.0 0.00 0.00 0.00 83 1021.5
20170328060955 47 144 8.0 16.0 0.00 0.00 0.00 82 1021.4
20170328060527 47 209 1.0 16.0 0.00 0.00 0.00 82 1021.4
20170328060024 47 121 2.0 16.0 0.00 0.00 0.00 82 1021.5
20170328055524 47 145 1.0 16.0 0.00 0.00 0.00 82 1021.4
20170328055024 47 137 4.0 16.0 0.00 0.00 0.00 82 1021.5
20170328054524 47 73 3.0 13.0 0.00 0.00 0.00 82 1021.4
20170328054027 47 83 0.0 13.0 0.00 0.00 0.00 82 1021.5
20170328053526 48 164 3.0 12.0 0.00 0.00 0.00 82 1021.3
20170328053026 48 112 0.0 14.0 0.00 0.00 0.00 82 1021.3
20170328052526 48 144 3.0 14.0 0.00 0.00 0.00 82 1021.3
20170328052023 48 116 1.0 12.0 0.00 0.00 0.00 82 1021.4
20170328051526 48 127 6.0 20.0 0.00 0.00 0.00 82 1021.3
20170328051022 48 113 1.0 20.0 0.00 0.00 0.00 82 1021.2
20170328050525 48 151 6.0 14.0 0.00 0.00 0.00 82 1021.2
20170328050022 48 93 9.0 14.0 0.00 0.00 0.00 82 1021.2
20170328045525 48 143 6.0 15.0 0.00 0.00 0.00 81 1021.1
20170328045022 48 118 9.0 15.0 0.00 0.00 0.00 81 1021.1
20170328044521 48 139 5.0 21.0 0.00 0.00 0.00 81 1021.0
20170328044024 48 139 8.0 21.0 0.00 0.00 0.00 81 1021.0
20170328043521 48 116 5.0 12.0 0.00 0.00 0.00 81 1021.0
20170328043024 48 158 7.0 10.0 0.00 0.00 0.00 81 1020.9
20170328042525 48 101 7.0 8.0 0.00 0.00 0.00 81 1020.8
20170328042021 48 150 4.0 9.0 0.00 0.00 0.00 81 1020.7
20170328041521 48 143 4.0 9.0 0.00 0.00 0.00 81 1020.6
20170328041023 48 110 5.0 9.0 0.00 0.00 0.00 81 1020.6
20170328040520 49 104 1.0 12.0 0.00 0.00 0.00 81 1020.6
20170328040020 49 132 1.0 12.0 0.00 0.00 0.00 81 1020.6
20170328035520 49 107 5.0 12.0 0.00 0.00 0.00 81 1020.5
20170328035020 49 136 7.0 11.0 0.00 0.00 0.00 81 1020.5
20170328034520 49 122 11.0 11.0 0.00 0.00 0.00 81 1020.4
20170328034023 49 106 8.0 10.0 0.00 0.00 0.00 81 1020.3
20170328033520 49 110 3.0 17.0 0.00 0.00 0.00 81 1020.3
20170328033020 49 135 1.0 17.0 0.00 0.00 0.00 81 1020.1
20170328032519 49 233 1.0 14.0 0.00 0.00 0.00 81 1020.0
20170328032019 49 102 8.0 14.0 0.00 0.00 0.00 80 1020.0